| time (UTC) | temp C | wind direction | speed KPH | gust KPH | rain 1hr cm | rain 24hr cm | rain mn cm | humidity % | barometer mb |
| 20260508130100 | 2 | 74 | 1.6 | 12.9 | 0.00 | 0.00 | 0.00 | 70 | 750.6 |
| 20260508124558 | 1 | 293 | 0.0 | 4.8 | 0.00 | 0.00 | 0.00 | 74 | 750.5 |
| 20260508123057 | 1 | 333 | 0.0 | 3.2 | 0.00 | 0.00 | 0.00 | 73 | 750.4 |
| 20260508121558 | 1 | 241 | 0.0 | 4.8 | 0.00 | 0.00 | 0.00 | 73 | 750.4 |
| 20260508120056 | 1 | 10 | 0.0 | 3.2 | 0.00 | 0.00 | 0.00 | 72 | 750.2 |
| 20260508114607 | 2 | 5 | 3.2 | 8.0 | 0.00 | 0.00 | 0.00 | 72 | 750.2 |
| 20260508113102 | 2 | 26 | 3.2 | 6.4 | 0.00 | 0.00 | 0.00 | 71 | 750.3 |
| 20260508111606 | 1 | 44 | 0.0 | 4.8 | 0.00 | 0.00 | 0.00 | 73 | 750.3 |
| 20260508110054 | 1 | 351 | 1.6 | 6.4 | 0.00 | 0.00 | 0.00 | 74 | 750.4 |
| 20260508104551 | 1 | 295 | 0.0 | 4.8 | 0.00 | 0.00 | 0.00 | 74 | 750.4 |
| 20260508103050 | 1 | 46 | 3.2 | 6.4 | 0.00 | 0.00 | 0.00 | 73 | 750.4 |
| 20260508101548 | 1 | 115 | 1.6 | 6.4 | 0.00 | 0.00 | 0.00 | 73 | 750.4 |
| 20260508100046 | 1 | 82 | 0.0 | 3.2 | 0.00 | 0.00 | 0.00 | 72 | 750.4 |
| 20260508094547 | 1 | 86 | 1.6 | 4.8 | 0.00 | 0.00 | 0.00 | 71 | 750.5 |
| 20260508093044 | 2 | 67 | 0.0 | 4.8 | 0.00 | 0.00 | 0.00 | 70 | 750.5 |
| 20260508091555 | 2 | 116 | 1.6 | 6.4 | 0.00 | 0.00 | 0.00 | 70 | 750.4 |
| 20260508090042 | 2 | 16 | 0.0 | 3.2 | 0.00 | 0.00 | 0.00 | 71 | 750.5 |
| 20260508084536 | 2 | 69 | 1.6 | 6.4 | 0.00 | 0.00 | 0.00 | 69 | 750.6 |
| 20260508083037 | 2 | 44 | 1.6 | 4.8 | 0.00 | 0.00 | 0.00 | 68 | 750.5 |
| 20260508081543 | 2 | 95 | 1.6 | 4.8 | 0.00 | 0.00 | 0.00 | 66 | 750.6 |
| 20260508080038 | 2 | 102 | 0.0 | 6.4 | 0.00 | 0.00 | 0.00 | 67 | 750.7 |
| 20260508074529 | 2 | 15 | 0.0 | 4.8 | 0.00 | 0.00 | 0.00 | 64 | 750.6 |
| 20260508073027 | 3 | 327 | 1.6 | 4.8 | 0.00 | 0.00 | 0.00 | 63 | 750.6 |
| 20260508071528 | 3 | 32 | 0.0 | 6.4 | 0.00 | 0.00 | 0.00 | 61 | 750.6 |
| 20260508070024 | 3 | 78 | 1.6 | 4.8 | 0.00 | 0.00 | 0.00 | 61 | 750.5 |
| 20260508064526 | 3 | 78 | 0.0 | 6.4 | 0.00 | 0.00 | 0.00 | 62 | 750.5 |
| 20260508063018 | 3 | 194 | 0.0 | 0.0 | 0.00 | 0.00 | 0.00 | 62 | 750.5 |
| 20260508061517 | 3 | 106 | 0.0 | 0.0 | 0.00 | 0.00 | 0.00 | 64 | 750.5 |
| 20260508060014 | 3 | 133 | 0.0 | 0.0 | 0.00 | 0.00 | 0.00 | 61 | 750.4 |
| 20260508054514 | 3 | 156 | 0.0 | 1.6 | 0.00 | 0.00 | 0.00 | 61 | 750.6 |
| 20260508053014 | 3 | 86 | 0.0 | 4.8 | 0.00 | 0.00 | 0.00 | 62 | 750.7 |
| 20260508051525 | 3 | 260 | 0.0 | 4.8 | 0.00 | 0.00 | 0.00 | 61 | 750.8 |
| 20260508050012 | 3 | 260 | 0.0 | 3.2 | 0.00 | 0.00 | 0.00 | 60 | 750.8 |
| 20260508044512 | 3 | 260 | 0.0 | 0.0 | 0.00 | 0.00 | 0.00 | 60 | 750.9 |
| 20260508043018 | 4 | 260 | 0.0 | 4.8 | 0.00 | 0.00 | 0.00 | 59 | 750.9 |
| 20260508041515 | 4 | 260 | 0.0 | 3.2 | 0.00 | 0.00 | 0.00 | 59 | 750.9 |
| 20260508040011 | 5 | 260 | 0.0 | 6.4 | 0.00 | 0.00 | 0.00 | 57 | 750.9 |
| 20260508034510 | 5 | 281 | 0.0 | 1.6 | 0.00 | 0.00 | 0.00 | 56 | 750.9 |
| 20260508033010 | 5 | 281 | 0.0 | 3.2 | 0.00 | 0.00 | 0.00 | 55 | 750.6 |
| 20260508031509 | 6 | 294 | 1.6 | 4.8 | 0.00 | 0.00 | 0.00 | 54 | 750.4 |
| 20260508030009 | 6 | 355 | 1.6 | 11.3 | 0.00 | 0.00 | 0.00 | 52 | 750.2 |
| 20260508024508 | 6 | 294 | 0.0 | 6.4 | 0.00 | 0.00 | 0.00 | 52 | 750.1 |
| 20260508023009 | 7 | 304 | 0.0 | 9.7 | 0.00 | 0.00 | 0.00 | 50 | 750.0 |
| 20260508021508 | 7 | 13 | 0.0 | 6.4 | 0.00 | 0.00 | 0.00 | 49 | 749.9 |
| 20260508020012 | 8 | 85 | 0.0 | 3.2 | 0.00 | 0.00 | 0.00 | 46 | 749.7 |
| 20260508014510 | 8 | 355 | 1.6 | 9.7 | 0.00 | 0.00 | 0.00 | 45 | 749.6 |
| 20260508013008 | 10 | 19 | 1.6 | 6.4 | 0.00 | 0.00 | 0.00 | 43 | 749.4 |
| 20260508011505 | 11 | 49 | 3.2 | 8.0 | 0.00 | 0.00 | 0.00 | 39 | 749.4 |
| 20260508010004 | 13 | 105 | 0.0 | 0.0 | 0.00 | 0.00 | 0.00 | 39 | 749.4 |
| 20260508004506 | 15 | 105 | 0.0 | 0.0 | 0.00 | 0.00 | 0.00 | 26 | 749.4 |
| 20260508003002 | 17 | 232 | 0.0 | 3.2 | 0.00 | 0.00 | 0.00 | 21 | 749.2 |
| 20260508001502 | 17 | 94 | 0.0 | 6.4 | 0.00 | 0.00 | 0.00 | 21 | 749.2 |
| 20260508000004 | 17 | 255 | 3.2 | 9.7 | 0.00 | 0.00 | 0.00 | 21 | 749.1 |
| 20260507234501 | 16 | 140 | 3.2 | 11.3 | 0.00 | 0.00 | 0.00 | 22 | 749.1 |
| 20260507233100 | 16 | 118 | 6.4 | 11.3 | 0.00 | 0.00 | 0.00 | 21 | 749.2 |
| 20260507231559 | 16 | 255 | 1.6 | 12.9 | 0.00 | 0.00 | 0.00 | 22 | 749.2 |
| 20260507230056 | 16 | 270 | 3.2 | 12.9 | 0.00 | 0.00 | 0.00 | 24 | 749.3 |
| 20260507224558 | 16 | 315 | 0.0 | 8.0 | 0.00 | 0.03 | 0.00 | 23 | 749.3 |
| 20260507223056 | 15 | 206 | 3.2 | 16.1 | 0.00 | 0.03 | 0.00 | 25 | 749.3 |
| 20260507221550 | 15 | 202 | 3.2 | 14.5 | 0.00 | 0.03 | 0.00 | 25 | 749.3 |
| 20260507220047 | 16 | 232 | 1.6 | 9.7 | 0.00 | 0.03 | 0.00 | 25 | 749.5 |
| 20260507214545 | 16 | 150 | 4.8 | 11.3 | 0.00 | 0.10 | 0.00 | 24 | 749.7 |
| 20260507213047 | 16 | 186 | 1.6 | 9.7 | 0.00 | 0.10 | 0.00 | 22 | 749.9 |
| 20260507211539 | 18 | 108 | 1.6 | 8.0 | 0.00 | 0.10 | 0.00 | 18 | 750.1 |
| 20260507210037 | 17 | 134 | 3.2 | 14.5 | 0.00 | 0.10 | 0.00 | 21 | 750.3 |
| 20260507204532 | 17 | 132 | 3.2 | 11.3 | 0.00 | 0.25 | 0.00 | 22 | 750.4 |
| 20260507203031 | 17 | 255 | 3.2 | 14.5 | 0.00 | 0.25 | 0.00 | 19 | 750.8 |
| 20260507201526 | 16 | 114 | 8.0 | 14.5 | 0.00 | 0.25 | 0.00 | 20 | 750.8 |
| 20260507200023 | 17 | 111 | 1.6 | 14.5 | 0.00 | 0.25 | 0.00 | 25 | 751.0 |
| 20260507194521 | 17 | 169 | 3.2 | 9.7 | 0.00 | 0.48 | 0.00 | 21 | 751.1 |
| 20260507193019 | 17 | 126 | 3.2 | 12.9 | 0.00 | 0.48 | 0.00 | 18 | 751.3 |
| 20260507191516 | 16 | 179 | 1.6 | 11.3 | 0.00 | 0.48 | 0.00 | 23 | 751.4 |
| 20260507190016 | 15 | 224 | 1.6 | 11.3 | 0.00 | 0.48 | 0.00 | 24 | 751.5 |
| 20260507184510 | 16 | 77 | 1.6 | 8.0 | 0.00 | 0.64 | 0.00 | 22 | 751.6 |
| 20260507183006 | 15 | 114 | 4.8 | 12.9 | 0.00 | 0.64 | 0.00 | 20 | 751.7 |
| 20260507181505 | 14 | 114 | 4.8 | 14.5 | 0.00 | 0.64 | 0.00 | 22 | 751.9 |
| 20260507180059 | 15 | 176 | 3.2 | 9.7 | 0.00 | 0.64 | 0.00 | 24 | 752.0 |
| 20260507174605 | 14 | 152 | 4.8 | 12.9 | 0.00 | 0.71 | 0.00 | 25 | 752.0 |
| 20260507173051 | 14 | 205 | 1.6 | 9.7 | 0.00 | 0.71 | 0.00 | 27 | 752.0 |
| 20260507171600 | 13 | 210 | 3.2 | 6.4 | 0.00 | 0.71 | 0.00 | 31 | 752.1 |
| 20260507170048 | 11 | 193 | 1.6 | 9.7 | 0.00 | 0.71 | 0.00 | 33 | 752.2 |
| 20260507164539 | 8 | 67 | 6.4 | 12.9 | 0.00 | 0.76 | 0.00 | 29 | 752.3 |
| 20260507163034 | 7 | 140 | 3.2 | 6.4 | 0.00 | 0.76 | 0.00 | 35 | 752.4 |
| 20260507161530 | 7 | 259 | 1.6 | 9.7 | 0.00 | 0.76 | 0.00 | 41 | 752.5 |
| 20260507160027 | 6 | 109 | 3.2 | 9.7 | 0.00 | 0.76 | 0.00 | 39 | 752.7 |
| 20260507154522 | 5 | 85 | 1.6 | 6.4 | 0.00 | 0.79 | 0.00 | 43 | 752.9 |
| 20260507153018 | 4 | 99 | 0.0 | 6.4 | 0.00 | 0.79 | 0.00 | 50 | 753.0 |
| 20260507151515 | 3 | 92 | 3.2 | 6.4 | 0.00 | 0.79 | 0.00 | 55 | 753.2 |
| 20260507150015 | 2 | 30 | 0.0 | 0.0 | 0.00 | 0.79 | 0.00 | 54 | 753.2 |
| 20260507144515 | 3 | 27 | 0.0 | 0.0 | 0.00 | 0.81 | 0.00 | 56 | 753.2 |
| 20260507143010 | 2 | 27 | 0.0 | 0.0 | 0.00 | 0.81 | 0.00 | 60 | 753.2 |
| 20260507141506 | 1 | 22 | 0.0 | 0.0 | 0.00 | 0.81 | 0.00 | 68 | 753.2 |
| 20260507140006 | 0 | 19 | 0.0 | 1.6 | 0.00 | 0.81 | 0.00 | 77 | 753.2 |
| 20260507134558 | -3 | 23 | 1.6 | 4.8 | 0.00 | 0.81 | 0.00 | 80 | 753.4 |
| 20260507133055 | -3 | 238 | 0.0 | 0.0 | 0.00 | 0.81 | 0.00 | 80 | 753.4 |
| 20260507131554 | -3 | 238 | 0.0 | 1.6 | 0.00 | 0.81 | 0.00 | 80 | 753.3 |